Regional Weather Roundup
Issued by NWS

Home | Current Version | Previous Version | Graphics & Text | Print | Product List | Glossary On
Versions: 1 2 3 4 5 6 7 8 9 10 11 12 13 14 15 16 17 18 19 20 21 22 23 24 25 26 27 28 29 30 31 32 33 34 35 36 37 38 39 40 41 42 43 44 45 46 47 48 49 50
000
ASUS43 KLSX 050410
RWRMO

WEATHER SUMMARY FOR MISSOURI
NATIONAL WEATHER SERVICE SPRINGFIELD MO
1100 PM CDT WED MAY 04 2016

NOTE: "FAIR" INDICATES FEW OR NO CLOUDS BELOW 12,000 FEET WITH NO
       SIGNIFICANT WEATHER AND/OR OBSTRUCTIONS TO VISIBILITY.
       CURRENT SKY AND/OR WEATHER CONDITIONS ARE NOT AVAILABLE FOR
       CHILLICOTHE AND FARMINGTON.

MOZ001>031-035>038-043-044-053-054-050500-
...NORTHERN AND WESTERN MISSOURI...

CITY           SKY/WX    TMP DP  RH WIND       PRES   REMARKS
KANSAS CTY INT CLEAR     57  36  45 NW6       30.01R
KANSAS C DTWN  CLEAR     56  40  55 CALM      30.00R
LEE`S SUMMIT   CLEAR     54  40  59 CALM      30.01R
ST JOSEPH      CLEAR     52  41  66 CALM      30.01R
CHILLICOTHE      N/A     49  42  77 CALM      29.99R
KIRKSVILLE     CLEAR     50  36  58 NW6       29.95S

$$
MOZ066>068-077>081-088>096-101>105-050500-
...SOUTHWEST MISSOURI...

CITY           SKY/WX    TMP DP  RH WIND       PRES   REMARKS
SPRINGFIELD    CLEAR     55  37  50 NW3       29.98R
JOPLIN         CLEAR     53  44  71 CALM      30.01R

$$
MOZ032>034-039>042-045>050-055>058-069>072-050500-
...CENTRAL MISSOURI...

CITY           SKY/WX    TMP DP  RH WIND       PRES   REMARKS
COLUMBIA       CLEAR     52  37  56 W7        29.95S
JEFFERSON CITY CLEAR     50  40  68 CALM      29.95S
ROLLA          CLEAR     51  36  56 NW5       29.94R
SEDALIA        CLEAR     55  38  52 NW6       29.99R
WHITEMAN AFB   CLEAR     54  39  56 N5        29.98R
WARRENSBURG    CLEAR     54  37  54 NW5       30.00R
OSAGE BEACH    CLEAR     54  34  47 N3        29.97S

$$
MOZ051-052-059>065-050500-
...EAST CENTRAL MISSOURI...

CITY           SKY/WX    TMP DP  RH WIND       PRES   REMARKS
ST LOUIS INTL  MOCLDY    56  38  50 W6        29.90S
SPIRIT OF STL  MOCLDY    49  42  77 W5        29.90S
ST CHARLES     CLOUDY    52  45  77 W6        29.89S

$$
MOZ072>076-082>087-097>100-106>115-050500-
...SOUTH CENTRAL AND SOUTHEAST MISSOURI...

CITY           SKY/WX    TMP DP  RH WIND       PRES   REMARKS
CAPE GIRARDEAU CLEAR     54  41  61 N5        29.90S
FARMINGTON     PTCLDY    54  35  48 CALM      29.92F
POPLAR BLUFF   PTCLDY    54  41  61 N5        29.91R
WEST PLAINS    CLEAR     53  34  48 NW5       29.96R

$$




USA.gov is the U.S. government's official web portal to all federal, state and local government web resources and services.